N510CM LUKK-LBWN

Flight info

Callsign N510CM
Flight time 1h 12m
Altitude 38000
Route LIPTA T34 KODRU DCT GLT/N0336F370 DCT DINRO L919 GOSLO
Aircraft C510/L-SDFGRWY/LB1

Departure

Time 2026-05-04 15:33
Airport Chişinău International Airport (LUKK)

Arrival

Time 2026-05-04 16:46
Airport Varna Airport (LBWN)
Time Latitude Longitude Altitude Speed Heading
2026-05-04 15:10 46.93371 28.93670 309 ft 0 kts
2026-05-04 15:26 46.93375 28.93671 309 ft 1 kts
2026-05-04 15:27 46.93393 28.93671 308 ft 3 kts 348°
2026-05-04 15:27 46.93409 28.93633 309 ft 4 kts 278°
2026-05-04 15:28 46.93425 28.93452 314 ft 12 kts 276°
2026-05-04 15:28 46.93437 28.93313 317 ft 14 kts 277°
2026-05-04 15:28 46.93463 28.93039 322 ft 13 kts 287°
2026-05-04 15:29 46.93477 28.92895 325 ft 15 kts 279°
2026-05-04 15:30 46.93224 28.92588 331 ft 17 kts 277°
2026-05-04 15:30 46.93263 28.92110 352 ft 11 kts 268°
2026-05-04 15:31 46.93104 28.91988 358 ft 18 kts 188°
2026-05-04 15:31 46.92994 28.91990 359 ft 10 kts 178°
2026-05-04 15:32 46.92807 28.91999 359 ft 19 kts 178°
2026-05-04 15:32 46.92768 28.92767 332 ft 101 kts 84°
2026-05-04 15:33 46.92725 28.95676 1035 ft 165 kts 89°
2026-05-04 15:34 46.92894 29.01109 4029 ft 174 kts 86°
2026-05-04 15:34 46.92948 29.02810 5099 ft 174 kts 86°
2026-05-04 15:34 46.92072 29.05945 6995 ft 192 kts 153°
2026-05-04 15:35 46.89740 29.04837 8954 ft 199 kts 229°
2026-05-04 15:35 46.88778 29.03434 9896 ft 201 kts 221°
2026-05-04 15:35 46.87699 29.02185 10815 ft 204 kts 216°
2026-05-04 15:36 46.85352 28.99957 12361 ft 206 kts 211°
2026-05-04 15:36 46.84103 28.98898 13006 ft 211 kts 209°
2026-05-04 15:36 46.82818 28.97852 13666 ft 214 kts 208°
2026-05-04 15:37 46.81499 28.96806 14331 ft 217 kts 208°
2026-05-04 15:37 46.80172 28.95771 14976 ft 220 kts 208°
2026-05-04 15:37 46.78812 28.94720 15612 ft 223 kts 208°
2026-05-04 15:37 46.77455 28.93678 16224 ft 226 kts 208°
2026-05-04 15:38 46.76065 28.92616 16833 ft 228 kts 208°
2026-05-04 15:38 46.74646 28.91533 17435 ft 231 kts 208°
2026-05-04 15:38 46.73226 28.90453 18014 ft 234 kts 208°
2026-05-04 15:38 46.71772 28.89348 18586 ft 237 kts 208°
2026-05-04 15:39 46.70320 28.88246 19145 ft 239 kts 208°
2026-05-04 15:39 46.68850 28.87130 19706 ft 241 kts 208°
2026-05-04 15:39 46.65841 28.84849 20781 ft 246 kts 209°
2026-05-04 15:40 46.64324 28.83700 21310 ft 249 kts 210°
2026-05-04 15:40 46.62794 28.82543 21823 ft 251 kts 210°
2026-05-04 15:40 46.61248 28.81375 22319 ft 253 kts 210°
2026-05-04 15:40 46.59684 28.80190 22808 ft 256 kts 210°
2026-05-04 15:41 46.58112 28.78996 23305 ft 257 kts 211°
2026-05-04 15:41 46.56524 28.77790 23807 ft 258 kts 211°
2026-05-04 15:41 46.54927 28.76584 24288 ft 260 kts 211°
2026-05-04 15:41 46.53319 28.75369 24649 ft 266 kts 211°
2026-05-04 15:42 46.51606 28.74060 24670 ft 286 kts 211°
2026-05-04 15:42 46.49818 28.72691 24706 ft 301 kts 211°
2026-05-04 15:42 46.47948 28.71264 24928 ft 308 kts 211°
2026-05-04 15:42 46.46033 28.69816 25310 ft 308 kts 211°
2026-05-04 15:43 46.44165 28.68415 25693 ft 307 kts 211°
2026-05-04 15:43 46.42251 28.66979 26046 ft 308 kts 211°
2026-05-04 15:43 46.40355 28.65559 26370 ft 310 kts 211°
2026-05-04 15:43 46.38444 28.64122 26711 ft 310 kts 211°
2026-05-04 15:44 46.36539 28.62690 27024 ft 311 kts 212°
2026-05-04 15:44 46.34598 28.61232 27336 ft 313 kts 212°
2026-05-04 15:44 46.32681 28.59796 27635 ft 314 kts 212°
2026-05-04 15:44 46.30747 28.58347 27931 ft 315 kts 212°
2026-05-04 15:45 46.28808 28.56895 28213 ft 316 kts 212°
2026-05-04 15:45 46.26843 28.55422 28530 ft 315 kts 212°
2026-05-04 15:45 46.24904 28.53979 28812 ft 316 kts 212°
2026-05-04 15:45 46.22960 28.52522 29105 ft 316 kts 212°
2026-05-04 15:46 46.21034 28.51083 29654 ft 307 kts 212°
2026-05-04 15:46 46.19173 28.49700 30108 ft 302 kts 212°
2026-05-04 15:46 46.17303 28.48312 30409 ft 303 kts 212°
2026-05-04 15:46 46.15433 28.46913 30668 ft 305 kts 213°
2026-05-04 15:47 46.13542 28.45496 30912 ft 307 kts 213°
2026-05-04 15:47 46.11666 28.44097 31175 ft 308 kts 213°
2026-05-04 15:47 46.09758 28.42682 31480 ft 308 kts 213°
2026-05-04 15:47 46.07855 28.41270 31768 ft 308 kts 212°
2026-05-04 15:48 46.05952 28.39859 32015 ft 309 kts 213°
2026-05-04 15:48 46.04066 28.38462 32256 ft 309 kts 213°
2026-05-04 15:48 46.00233 28.35620 32770 ft 310 kts 213°
2026-05-04 15:49 45.98327 28.34202 33017 ft 310 kts 212°
2026-05-04 15:49 45.96420 28.32792 33251 ft 311 kts 212°
2026-05-04 15:49 45.94521 28.31390 33498 ft 310 kts 212°
2026-05-04 15:49 45.92584 28.29957 33719 ft 312 kts 212°
2026-05-04 15:50 45.90654 28.28541 33922 ft 313 kts 212°
2026-05-04 15:50 45.88732 28.27122 34156 ft 312 kts 212°
2026-05-04 15:50 45.86806 28.25707 34339 ft 314 kts 212°
2026-05-04 15:50 45.84862 28.24271 34510 ft 316 kts 212°
2026-05-04 15:51 45.82921 28.22843 34673 ft 317 kts 212°
2026-05-04 15:51 45.80949 28.21401 34879 ft 318 kts 212°
2026-05-04 15:51 45.78958 28.19934 35037 ft 320 kts 212°
2026-05-04 15:51 45.76997 28.18499 35263 ft 318 kts 212°
2026-05-04 15:52 45.75013 28.17041 35443 ft 319 kts 212°
2026-05-04 15:52 45.73030 28.15594 35566 ft 322 kts 212°
2026-05-04 15:52 45.71026 28.14134 35711 ft 323 kts 212°
2026-05-04 15:52 45.69008 28.12658 35899 ft 323 kts 212°
2026-05-04 15:53 45.67023 28.11205 36070 ft 324 kts 212°
2026-05-04 15:53 45.65019 28.09745 36197 ft 325 kts 212°
2026-05-04 15:53 45.63010 28.08282 36369 ft 326 kts 212°
2026-05-04 15:53 45.60991 28.06812 36469 ft 328 kts 212°
2026-05-04 15:54 45.58962 28.05335 36635 ft 328 kts 212°
2026-05-04 15:54 45.56920 28.03850 36787 ft 328 kts 212°
2026-05-04 15:54 45.54914 28.02393 36921 ft 329 kts 212°
2026-05-04 15:54 45.52865 28.00905 36990 ft 331 kts 212°
2026-05-04 15:55 45.48735 27.97897 37018 ft 339 kts 212°
2026-05-04 15:55 45.44238 27.95735 37010 ft 360 kts 182°
2026-05-04 15:56 45.41792 27.96659 37023 ft 374 kts 157°
2026-05-04 15:56 45.39555 27.98488 37038 ft 372 kts 158°
2026-05-04 15:56 45.34778 28.01153 37017 ft 366 kts 165°
2026-05-04 15:57 45.29994 28.03519 37017 ft 364 kts 165°
2026-05-04 15:57 45.25240 28.05876 37016 ft 363 kts 165°
2026-05-04 15:58 45.20501 28.08218 37013 ft 362 kts 165°
2026-05-04 15:58 45.15771 28.10562 37021 ft 361 kts 165°
2026-05-04 15:59 45.11028 28.12909 37024 ft 360 kts 166°
2026-05-04 15:59 45.06337 28.15220 37025 ft 359 kts 165°
2026-05-04 16:00 45.01630 28.17515 37023 ft 357 kts 165°
2026-05-04 16:00 44.96983 28.19801 37016 ft 354 kts 164°
2026-05-04 16:01 44.92383 28.22059 37023 ft 351 kts 164°
2026-05-04 16:01 44.87792 28.24327 37033 ft 349 kts 164°
2026-05-04 16:02 44.83258 28.26556 37042 ft 347 kts 164°
2026-05-04 16:03 44.76443 28.29883 37046 ft 346 kts 163°
2026-05-04 16:03 44.71899 28.32108 37046 ft 345 kts 164°
2026-05-04 16:04 44.67400 28.34298 37046 ft 345 kts 164°
2026-05-04 16:04 44.60624 28.37584 37050 ft 344 kts 164°
2026-05-04 16:05 44.56093 28.39778 37050 ft 344 kts 164°
2026-05-04 16:06 44.49259 28.43088 36562 ft 358 kts 164°
2026-05-04 16:06 44.42532 28.46340 35312 ft 330 kts 164°
2026-05-04 16:07 44.40391 28.47371 34902 ft 323 kts 164°
2026-05-04 16:07 44.34190 28.50364 33674 ft 308 kts 165°
2026-05-04 16:08 44.32188 28.51319 33277 ft 305 kts 165°
2026-05-04 16:08 44.26261 28.54142 32079 ft 297 kts 164°
2026-05-04 16:09 44.22407 28.55979 31327 ft 292 kts 164°
2026-05-04 16:09 44.18604 28.57798 30577 ft 288 kts 164°
2026-05-04 16:10 44.14847 28.59580 29826 ft 284 kts 163°
2026-05-04 16:11 44.09296 28.62228 28697 ft 279 kts 163°
2026-05-04 16:11 44.07468 28.63097 28316 ft 278 kts 162°
2026-05-04 16:12 44.02035 28.65676 27194 ft 275 kts 163°
2026-05-04 16:12 43.96625 28.68242 26089 ft 276 kts 162°
2026-05-04 16:13 43.93007 28.69955 25435 ft 278 kts 162°
2026-05-04 16:13 43.89296 28.71710 24789 ft 283 kts 162°
2026-05-04 16:14 43.85544 28.73490 24147 ft 286 kts 161°
2026-05-04 16:14 43.81779 28.75267 23534 ft 287 kts 162°
2026-05-04 16:15 43.76021 28.77984 22801 ft 297 kts 161°
2026-05-04 16:16 43.72079 28.79753 22306 ft 301 kts 167°
2026-05-04 16:16 43.66435 28.77382 21533 ft 313 kts 237°
2026-05-04 16:17 43.65207 28.71626 21044 ft 315 kts 245°
2026-05-04 16:18 43.62040 28.63834 20306 ft 303 kts 236°
2026-05-04 16:18 43.60927 28.61407 20056 ft 300 kts 236°
2026-05-04 16:19 43.57590 28.54257 19302 ft 294 kts 236°
2026-05-04 16:19 43.55382 28.49556 19019 ft 285 kts 236°
2026-05-04 16:20 43.52153 28.43055 19018 ft 267 kts 229°
2026-05-04 16:20 43.49781 28.39159 19018 ft 261 kts 228°
2026-05-04 16:21 43.46301 28.33492 19018 ft 257 kts 227°
2026-05-04 16:22 43.44017 28.29774 19019 ft 255 kts 227°
2026-05-04 16:22 43.40595 28.24218 19019 ft 253 kts 227°
2026-05-04 16:23 43.37200 28.18711 19019 ft 252 kts 227°
2026-05-04 16:24 43.32664 28.11373 19019 ft 252 kts 227°
2026-05-04 16:25 43.30387 28.07698 19019 ft 252 kts 227°
2026-05-04 16:26 43.25841 28.00376 18271 ft 252 kts 228°
2026-05-04 16:26 43.22393 27.94837 16808 ft 259 kts 228°
2026-05-04 16:27 43.20062 27.91098 15815 ft 260 kts 229°
2026-05-04 16:28 43.16551 27.85470 14322 ft 260 kts 229°
2026-05-04 16:28 43.15121 27.78845 12819 ft 244 kts 277°
2026-05-04 16:29 43.15879 27.70243 10801 ft 218 kts 277°
2026-05-04 16:30 43.16416 27.64156 9297 ft 212 kts 277°
2026-05-04 16:31 43.16768 27.60164 8296 ft 211 kts 277°
2026-05-04 16:31 43.17283 27.54265 6872 ft 205 kts 277°
2026-05-04 16:32 43.17783 27.48482 5717 ft 203 kts 276°
2026-05-04 16:33 43.18116 27.44586 5227 ft 211 kts 276°
2026-05-04 16:33 43.18465 27.40521 4740 ft 218 kts 276°
2026-05-04 16:34 43.18819 27.36343 4246 ft 222 kts 276°
2026-05-04 16:34 43.18996 27.34251 4016 ft 220 kts 275°
2026-05-04 16:35 43.20635 27.28809 3982 ft 222 kts 341°
2026-05-04 16:35 43.25202 27.29194 3983 ft 223 kts
2026-05-04 16:36 43.26655 27.29847 3967 ft 219 kts 39°
2026-05-04 16:36 43.27379 27.33575 3995 ft 212 kts 95°
2026-05-04 16:37 43.27085 27.37629 3983 ft 214 kts 97°
2026-05-04 16:37 43.26918 27.39661 3983 ft 214 kts 97°
2026-05-04 16:37 43.26577 27.43712 3982 ft 214 kts 97°
2026-05-04 16:38 43.26219 27.47786 3982 ft 214 kts 97°
2026-05-04 16:39 43.25721 27.53761 3969 ft 193 kts 97°
2026-05-04 16:39 43.25461 27.56769 3955 ft 135 kts 98°
2026-05-04 16:40 43.25275 27.58993 3962 ft 108 kts 97°
2026-05-04 16:40 43.25091 27.61172 3742 ft 119 kts 98°
2026-05-04 16:41 43.24890 27.63365 3104 ft 118 kts 99°
2026-05-04 16:41 43.24589 27.66716 1987 ft 107 kts 99°
2026-05-04 16:42 43.24324 27.69608 1499 ft 112 kts 102°
2026-05-04 16:43 43.24136 27.71854 1556 ft 118 kts 98°
2026-05-04 16:43 43.23969 27.74015 1336 ft 112 kts 99°
2026-05-04 16:43 43.23879 27.75100 1167 ft 115 kts 100°
2026-05-04 16:44 43.23472 27.79463 474 ft 113 kts 101°
2026-05-04 16:45 43.23284 27.81529 217 ft 99 kts 99°
2026-05-04 16:46 43.23263 27.82506 230 ft 0 kts 44°
2026-05-04 16:46 43.23301 27.82552 231 ft 11 kts 39°
2026-05-04 16:47 43.23362 27.82622 234 ft 13 kts 43°
2026-05-04 16:47 43.23461 27.82362 231 ft 20 kts 278°
2026-05-04 16:48 43.23509 27.82353 232 ft 13 kts 43°
2026-05-04 16:48 43.23575 27.82410 234 ft 5 kts 17°
2026-05-04 16:49 43.23608 27.82418 235 ft 0 kts